Location: Niverville
(49.6028°N, 97.0419°W)
Time: 10:11:43
(UTC-06:00)

Amateur Radio Satellites - All Passes

Search period start: 28 January 2015 09:41
Search period end: 29 January 2015 09:41
Location: Niverville, 49.6028°N, 97.0419°W

Satellite Date Start Highest point End Downlink Frequencies (MHz)
Time Altitude Azimuth
DELFI C3 28 Jan 09:43:34 09:47:03 27° 94° (E) 09:50:33 145.870
POLYITAN 1 28 Jan 09:44:52 09:48:45 34° 67° (ENE) 09:52:41 437.675
Oscar 11 28 Jan 09:46:48 09:50:48 36° 96° (E) 09:54:49 145.826/435.025
BUGSAT 1 28 Jan 09:49:01 09:52:32 28° 65° (ENE) 09:56:10 437.445
CUTE 1.7 + AOD 2 28 Jan 09:49:25 09:53:41 71° 286° (WNW) 09:57:53 437.475
VELOX 1 28 Jan 09:54:41 09:56:05 11° 85° (E) 09:57:44 145.980
PCSat 28 Jan 09:55:36 09:57:49 12° 3° (N) 10:00:04 145.827
POPSAT HIP 1 28 Jan 10:05:11 10:09:20 51° 71° (ENE) 10:13:34 437.405
DUCHIFAT 1 28 Jan 10:08:30 10:12:40 54° 71° (ENE) 10:16:54 145.980
ANTELSAT 28 Jan 10:10:35 10:15:20 89° 272° (W) 10:20:04 437.575/2403.000
PHONESAT 2.4 28 Jan 10:11:00 10:11:35 10° 158° (SSE) 10:12:14 2401.200-2431.200
SO-50 28 Jan 10:14:02 10:16:55 17° 112° (ESE) 10:20:00 436.795
TIGRISAT 28 Jan 10:19:02 10:23:46 78° 258° (WSW) 10:28:30 435.000
CUBEBUG 2 28 Jan 10:21:25 10:26:02 60° 100° (E) 10:30:28 437.445
UKube-1 28 Jan 10:21:26 10:25:39 46° 99° (E) 10:29:52 .
SEEDS 28 Jan 10:21:54 10:25:52 39° 291° (WNW) 10:29:46 437.485
BRITE-PL 28 Jan 10:25:04 10:30:14 35° 295° (WNW) 10:35:13 437.365/2234.400
GOMX 1 28 Jan 10:26:06 10:31:18 42° 293° (WNW) 10:36:16 467.674
50 SAT 28 Jan 10:32:31 10:35:48 24° 92° (E) 10:39:07 437.505
ZACube-1 28 Jan 10:33:55 10:38:23 57° 100° (E) 10:42:41 437.345
RS-15 28 Jan 10:34:06 10:44:07 37° 5° (N) 10:54:30 29.354- 29.394
AIST 2 28 Jan 10:38:32 10:42:16 27° 35° (NE) 10:45:59 435.215
CINEMA 3 28 Jan 10:38:38 10:43:33 62° 288° (WNW) 10:48:14 145.822/145.860
DX 1 28 Jan 10:40:49 10:45:15 74° 104° (ESE) 10:49:39 434.975-435.025
NANOSAT C BR1 28 Jan 10:42:46 10:47:02 69° 258° (WSW) 10:51:21 145.865
DOVE 4 28 Jan 10:43:41 10:48:36 39° 294° (WNW) 10:53:17 437.250
HUMSAT D 28 Jan 10:45:37 10:49:42 42° 97° (E) 10:53:43 437.325/437.525
FUNcube-1 28 Jan 10:46:15 10:50:46 74° 102° (ESE) 10:55:07 145.935
BEESAT 2 28 Jan 10:48:29 10:52:37 53° 45° (NE) 10:56:43 435.950
COMPASS 1 28 Jan 10:50:26 10:53:55 25° 295° (WNW) 10:57:20 437.405
VERMONT LUNAR 28 Jan 10:54:30 10:56:50 17° 171° (S) 10:59:11 437.305
GONETS M04 28 Jan 10:56:27 11:02:55 23° 54° (NE) 11:09:39
QB50P2 28 Jan 10:56:36 11:00:47 49° 261° (W) 11:05:00 145.880/145.840
ESTCUBE 1 28 Jan 10:59:52 11:03:31 24° 92° (E) 11:07:14 437.505/2401.250
AISAT 28 Jan 11:00:07 11:04:31 48° 99° (E) 11:08:55 437.250
CANX-2 28 Jan 11:02:13 11:04:47 15° 300° (WNW) 11:07:13 2200.000
BEESAT 3 28 Jan 11:03:45 11:07:57 78° 49° (NE) 11:12:05 437.485
UWE-3 28 Jan 11:03:53 11:08:27 65° 287° (WNW) 11:12:50 435.000/436.395/437.385
QB50P1 28 Jan 11:06:30 11:10:34 40° 263° (W) 11:14:39 145.935-145.965
UNISAT 6 28 Jan 11:12:27 11:16:27 26° 267° (W) 11:20:22 437.425
HO-68 28 Jan 11:14:20 11:20:36 33° 304° (WNW) 11:26:46 435.675
AAUSAT CUBESAT 2 28 Jan 11:18:11 11:20:54 17° 299° (WNW) 11:23:31 437.432
DELFI C3 28 Jan 11:18:42 11:22:21 32° 292° (WNW) 11:25:56 145.870
POLYITAN 1 28 Jan 11:20:56 11:24:44 29° 265° (W) 11:28:33 437.675
Oscar 11 28 Jan 11:23:12 11:26:54 27° 295° (WNW) 11:30:32 145.826/435.025
BUGSAT 1 28 Jan 11:24:15 11:27:59 33° 264° (W) 11:31:47 437.445
CUTE 1.7 + AOD 2 28 Jan 11:28:07 11:28:54 10° 304° (NW) 11:29:29 437.475
VELOX 1 28 Jan 11:28:56 11:33:28 88° 96° (E) 11:37:59 145.980
SPROUT 28 Jan 11:31:50 11:33:43 13° 86° (E) 11:35:48 437.525
PCSat 28 Jan 11:39:17 11:43:22 21° 28° (NNE) 11:47:31 145.827
AIST 1 28 Jan 11:40:04 11:44:11 52° 95° (E) 11:48:22
CUBEBUG 1 28 Jan 11:40:34 11:44:56 53° 99° (E) 11:49:19 437.445
POPSAT HIP 1 28 Jan 11:42:24 11:45:35 19° 270° (W) 11:48:41 437.405
DUCHIFAT 1 28 Jan 11:45:53 11:48:55 18° 270° (W) 11:51:51 145.980
PHONESAT 2.4 28 Jan 11:46:44 11:49:20 19° 174° (S) 11:51:59 2401.200-2431.200
ANTELSAT 28 Jan 11:50:43 11:52:54 13° 275° (W) 11:54:51 437.575/2403.000
AO-7 28 Jan 11:51:38 11:53:04 11° 22° (NNE) 11:54:44 29.400- 29.500
SO-50 28 Jan 11:52:16 11:56:54 82° 311° (NW) 12:01:43 436.795
Oscar 19 28 Jan 11:52:52 11:57:10 28° 62° (ENE) 12:01:34 437.125/150
UKube-1 28 Jan 11:58:06 12:01:37 23° 297° (WNW) 12:05:01 .
CUBEBUG 2 28 Jan 11:58:54 12:02:22 20° 299° (WNW) 12:05:38 437.445
TIGRISAT 28 Jan 12:00:12 12:01:25 11° 277° (W) 12:02:22 435.000
50 SAT 28 Jan 12:07:17 12:11:05 37° 291° (WNW) 12:14:48 437.505
ITAMSAT 1 28 Jan 12:08:09 12:11:13 16° 55° (NE) 12:14:28 435.822/435.867
ZACube-1 28 Jan 12:11:04 12:14:24 20° 299° (WNW) 12:17:34 437.345
TISAT 1 28 Jan 12:11:16 12:15:02 29° 95° (E) 12:18:48 437.305
AIST 2 28 Jan 12:16:57 12:21:12 58° 236° (SW) 12:25:22 435.215
CINEMA 3 28 Jan 12:18:11 12:19:50 11° 307° (NW) 12:21:15 145.822/145.860
DX 1 28 Jan 12:18:15 12:21:01 16° 301° (WNW) 12:23:41 434.975-435.025
HUMSAT D 28 Jan 12:21:51 12:25:19 24° 296° (WNW) 12:28:40 437.325/437.525
FUNcube-1 28 Jan 12:23:46 12:26:36 16° 301° (WNW) 12:29:17 145.935
BEESAT 2 28 Jan 12:27:14 12:30:35 23° 244° (WSW) 12:33:49 435.950
VERMONT LUNAR 28 Jan 12:31:50 12:34:15 18° 188° (S) 12:36:40 437.305
ESTCUBE 1 28 Jan 12:36:19 12:40:39 45° 291° (WNW) 12:44:57 437.505/2401.250
AISAT 28 Jan 12:37:17 12:40:55 24° 298° (WNW) 12:44:28 437.250
UWE-3 28 Jan 12:43:07 12:44:09 11° 306° (NW) 12:44:58 435.000/436.395/437.385
BEESAT 3 28 Jan 12:43:07 12:45:36 15° 247° (WSW) 12:47:56 437.485
RS-15 28 Jan 12:48:11 12:59:13 59° 37° (NE) 13:10:46 29.354- 29.394
GONETS M04 28 Jan 12:52:38 13:01:23 83° 79° (E) 13:10:07
Gurwin Techsat 1B 28 Jan 12:57:41 13:02:04 28° 62° (ENE) 13:06:34 435.225
SPROUT 28 Jan 13:06:06 13:10:30 80° 286° (WNW) 13:14:50 437.525
VELOX 1 28 Jan 13:06:59 13:09:29 14° 303° (WNW) 13:11:49 145.980
DANDE 28 Jan 13:17:18 13:20:09 13° 39° (NE) 13:23:04 436.750
CUBEBUG 1 28 Jan 13:17:37 13:21:02 21° 298° (WNW) 13:24:21 437.445
AIST 1 28 Jan 13:19:11 13:22:15 19° 295° (WNW) 13:25:14
PCSat 28 Jan 13:22:20 13:27:48 71° 52° (NE) 13:33:13 145.827
PHONESAT 2.4 28 Jan 13:24:45 13:27:12 17° 191° (S) 13:29:39 2401.200-2431.200
Oscar 19 28 Jan 13:31:13 13:36:18 51° 260° (W) 13:41:24 437.125/150
SO-50 28 Jan 13:34:25 13:38:12 23° 333° (NNW) 13:42:01 436.795
AO-7 28 Jan 13:36:27 13:43:08 29° 48° (NE) 13:49:58 29.400- 29.500
SWISSCUBE 28 Jan 13:44:07 13:48:43 44° 99° (E) 13:53:18 437.505
ITAMSAT 1 28 Jan 13:44:52 13:50:04 86° 74° (ENE) 13:55:19 435.822/435.867
TISAT 1 28 Jan 13:46:59 13:50:54 34° 293° (WNW) 13:54:46 437.305
CUSAT 1 28 Jan 13:50:52 13:55:39 20° 50° (NE) 13:59:51 437.405
HORYU 2 28 Jan 13:52:19 13:55:58 25° 63° (ENE) 13:59:42 437.375
BEESAT 28 Jan 14:00:03 14:04:47 57° 101° (E) 14:09:30 436.000
ITUPSAT 1 28 Jan 14:03:20 14:08:05 60° 101° (ESE) 14:12:50 437.325
STARS 28 Jan 14:32:28 14:35:38 19° 90° (E) 14:38:54 437.465
KKS-1 28 Jan 14:36:14 14:40:12 30° 95° (E) 14:44:10 437.445
Gurwin Techsat 1B 28 Jan 14:36:37 14:41:48 53° 260° (W) 14:47:02 435.225
SPROUT 28 Jan 14:44:09 14:45:56 12° 303° (WNW) 14:47:32 437.525
GONETS M04 28 Jan 14:50:34 14:57:21 25° 281° (W) 15:03:49
DANDE 28 Jan 14:59:04 15:06:10 47° 66° (ENE) 15:11:37 436.750
RS-15 28 Jan 15:00:53 15:11:52 58° 242° (WSW) 15:23:15 29.354- 29.394
PCSat 28 Jan 15:06:34 15:10:46 23° 251° (WSW) 15:14:49 145.827
M-CUBED/EXP-1 PRIME 28 Jan 15:15:21 15:17:07 14° 97° (E) 15:19:01 437.505
SO-50 28 Jan 15:17:57 15:20:27 14° 358° (N) 15:22:57 436.795
SWISSCUBE 28 Jan 15:22:21 15:26:25 28° 297° (WNW) 15:30:25 437.505
AO-7 28 Jan 15:26:40 15:35:05 89° 60° (ENE) 15:43:31 29.400- 29.500
ITAMSAT 1 28 Jan 15:27:18 15:30:23 15° 274° (W) 15:33:15 435.822/435.867
HORYU 2 28 Jan 15:28:08 15:32:28 44° 261° (W) 15:36:48 437.375
CUSAT 1 28 Jan 15:33:13 15:40:10 88° 76° (ENE) 15:45:18 437.405
BEESAT 28 Jan 15:38:36 15:42:19 22° 299° (WNW) 15:45:57 436.000
O/OREOS (USA 219) 28 Jan 15:39:33 15:41:18 12° 99° (E) 15:43:18 437.305
ITUPSAT 1 28 Jan 15:41:58 15:45:38 22° 300° (WNW) 15:49:11 437.325
JAS-2 28 Jan 15:43:07 15:48:17 49° 69° (ENE) 15:53:18 435.910
Cubesat XI-IV 28 Jan 15:45:25 15:47:10 12° 50° (NE) 15:49:08 437.490
AUBIESAT-1 28 Jan 15:48:25 15:51:21 29° 103° (ESE) 15:54:21 437.475
CUTE-I 28 Jan 16:04:05 16:07:08 16° 54° (NE) 16:10:22 437.470
STARS 28 Jan 16:08:08 16:12:31 55° 289° (WNW) 16:16:51 437.465
MOZHAYETS 4 28 Jan 16:09:58 16:12:20 14° 86° (E) 16:14:53
KKS-1 28 Jan 16:12:47 16:16:56 36° 293° (WNW) 16:21:00 437.445
DANDE 28 Jan 16:42:59 16:49:27 36° 273° (W) 16:54:27 436.750
M-CUBED/EXP-1 PRIME 28 Jan 16:49:15 16:52:27 44° 295° (WNW) 16:55:38 437.505
SO-50 28 Jan 16:59:17 17:02:47 19° 22° (NNE) 17:06:23 436.795
O/OREOS (USA 219) 28 Jan 17:15:35 17:20:06 88° 301° (WNW) 17:24:40 437.305
RS-15 28 Jan 17:16:15 17:22:05 15° 264° (W) 17:27:06 29.354- 29.394
CUSAT 1 28 Jan 17:17:53 17:21:55 17° 283° (WNW) 17:25:12 437.405
Cubesat XI-IV 28 Jan 17:21:04 17:26:17 57° 69° (ENE) 17:31:33 437.490
AO-7 28 Jan 17:22:32 17:29:05 24° 272° (W) 17:35:24 29.400- 29.500
AUBIESAT-1 28 Jan 17:23:37 17:26:14 22° 300° (WNW) 17:28:50 437.475
JAS-2 28 Jan 17:29:16 17:33:47 26° 268° (W) 17:38:04 435.910
CUTE-I 28 Jan 17:41:10 17:46:30 81° 74° (ENE) 17:51:53 437.470
MOZHAYETS 4 28 Jan 17:45:38 17:50:14 77° 285° (WNW) 17:54:47
CUBESAT XI-V 28 Jan 17:59:51 18:02:38 16° 87° (E) 18:05:34 437.345
YUBILEINY 28 Jan 18:05:17 18:09:26 15° 72° (ENE) 18:14:06 435.215
HO-68 28 Jan 18:14:22 18:19:11 20° 48° (NE) 18:24:13 435.675
PRISM 28 Jan 18:21:06 18:24:43 29° 95° (E) 18:28:22 437.425
BRITE-PL 28 Jan 18:25:51 18:28:37 15° 53° (NE) 18:31:40 437.365/2234.400
GOMX 1 28 Jan 18:26:35 18:27:59 11° 50° (NE) 18:29:39 467.674
SO-50 28 Jan 18:39:30 18:44:21 57° 44° (NE) 18:49:14 436.795
DOVE 4 28 Jan 18:42:13 18:43:34 11° 51° (NE) 18:45:10 437.250
CANX-2 28 Jan 18:49:13 18:51:05 13° 58° (ENE) 18:53:07 2200.000
O/OREOS (USA 219) 28 Jan 18:57:19 19:00:16 16° 319° (NW) 19:03:08 437.305
Cubesat XI-IV 28 Jan 19:02:29 19:06:48 24° 269° (W) 19:11:04 437.490
AAUSAT CUBESAT 2 28 Jan 19:04:54 19:05:51 11° 57° (ENE) 19:06:59 437.432
CUTE 1.7 + AOD 2 28 Jan 19:12:12 19:15:10 19° 62° (ENE) 19:18:14 437.475
CUTE-I 28 Jan 19:23:50 19:27:20 17° 273° (W) 19:30:39 437.470
MOZHAYETS 4 28 Jan 19:24:49 19:26:46 12° 304° (NW) 19:28:33
STRAND 1 28 Jan 19:25:35 19:30:42 63° 102° (ESE) 19:35:50 437.568
CUBESAT XI-V 28 Jan 19:35:59 19:40:41 73° 286° (WNW) 19:45:21 437.345
SEEDS 28 Jan 19:42:54 19:46:38 30° 67° (ENE) 19:50:23 437.485
UKube-1 28 Jan 19:48:27 19:49:25 11° 54° (NE) 19:50:35 .
CUBEBUG 2 28 Jan 19:49:47 19:52:13 14° 57° (ENE) 19:54:50 437.445
YUBILEINY 28 Jan 19:56:08 20:04:40 66° 93° (E) 20:13:18 435.215
PRISM 28 Jan 19:56:34 20:00:17 32° 293° (WNW) 20:03:58 437.425
HO-68 28 Jan 19:58:48 20:05:55 74° 69° (ENE) 20:13:05 435.675
GOMX 1 28 Jan 19:59:59 20:04:59 54° 70° (ENE) 20:10:18 467.674
ZACube-1 28 Jan 20:00:50 20:02:45 13° 56° (ENE) 20:04:50 437.345
BRITE-PL 28 Jan 20:01:06 20:06:12 73° 73° (ENE) 20:11:45 437.365/2234.400
DX 1 28 Jan 20:06:35 20:09:13 16° 59° (ENE) 20:11:58 434.975-435.025
CINEMA 3 28 Jan 20:07:50 20:12:08 31° 65° (ENE) 20:16:34 145.822/145.860
COMPASS 1 28 Jan 20:10:02 20:14:04 46° 71° (ENE) 20:18:08 437.405
FUNcube-1 28 Jan 20:12:10 20:14:48 16° 59° (ENE) 20:17:35 145.935
DOVE 4 28 Jan 20:15:19 20:20:17 55° 70° (ENE) 20:25:29 437.250
SO-50 28 Jan 20:20:30 20:24:42 28° 243° (WSW) 20:28:50 436.795
CANX-2 28 Jan 20:22:08 20:26:27 89° 79° (ENE) 20:30:46 2200.000
AISAT 28 Jan 20:29:16 20:30:51 12° 55° (NE) 20:32:38 437.250
UWE-3 28 Jan 20:29:33 20:33:21 25° 64° (ENE) 20:37:14 435.000/436.395/437.385
DELFI C3 28 Jan 20:36:03 20:39:40 32° 68° (ENE) 20:43:21 145.870
AAUSAT CUBESAT 2 28 Jan 20:36:39 20:40:51 75° 75° (ENE) 20:45:04 437.432
Oscar 11 28 Jan 20:45:39 20:49:50 50° 71° (ENE) 20:54:05 145.826/435.025
CUTE 1.7 + AOD 2 28 Jan 20:46:31 20:50:46 57° 260° (W) 20:55:00 437.475
VELOX 1 28 Jan 20:56:05 20:59:12 19° 60° (ENE) 21:02:25 145.980
STRAND 1 28 Jan 21:05:31 21:09:33 23° 300° (WNW) 21:13:29 437.568
CUBEBUG 1 28 Jan 21:08:15 21:09:39 12° 56° (NE) 21:11:15 437.445
CUBESAT XI-V 28 Jan 21:15:29 21:17:24 12° 304° (NW) 21:19:08 437.345
SEEDS 28 Jan 21:18:35 21:22:26 32° 265° (W) 21:26:16 437.485
UKube-1 28 Jan 21:20:33 21:24:52 70° 72° (ENE) 21:29:12 .
CUBEBUG 2 28 Jan 21:23:29 21:28:16 83° 75° (ENE) 21:33:05 437.445
50 SAT 28 Jan 21:24:09 21:27:41 28° 66° (ENE) 21:31:16 437.505
ZACube-1 28 Jan 21:33:48 21:38:25 77° 74° (ENE) 21:43:04 437.345
GOMX 1 28 Jan 21:39:09 21:43:29 26° 271° (W) 21:47:54 467.674
DX 1 28 Jan 21:40:38 21:45:00 73° 258° (WSW) 21:49:24 434.975-435.025
HUMSAT D 28 Jan 21:41:40 21:45:55 54° 71° (ENE) 21:50:12 437.325/437.525
BRITE-PL 28 Jan 21:41:41 21:45:26 19° 275° (W) 21:49:12 437.365/2234.400
AIST 1 28 Jan 21:43:06 21:46:28 22° 67° (ENE) 21:49:57
CINEMA 3 28 Jan 21:44:27 21:49:12 43° 263° (W) 21:54:02 145.822/145.860
FUNcube-1 28 Jan 21:45:59 21:50:36 84° 256° (WSW) 21:55:15 145.935
COMPASS 1 28 Jan 21:46:49 21:50:04 21° 269° (W) 21:53:14 437.405
HO-68 28 Jan 21:48:30 21:54:24 26° 270° (W) 22:00:09 435.675
DOVE 4 28 Jan 21:54:11 21:58:25 25° 271° (W) 22:02:41 437.250
YUBILEINY 28 Jan 21:54:23 22:02:13 35° 297° (WNW) 22:09:59 435.215
ISS 28 Jan 21:59:42 22:01:04 12° 137° (SE) 22:02:30 145.825
ANTELSAT 28 Jan 22:00:10 22:02:31 14° 86° (E) 22:05:00 437.575/2403.000
CANX-2 28 Jan 22:01:45 22:03:08 11° 276° (W) 22:04:17 2200.000
AISAT 28 Jan 22:02:20 22:06:47 75° 73° (ENE) 22:11:17 437.250
ESTCUBE 1 28 Jan 22:03:46 22:07:52 37° 67° (ENE) 22:12:02 437.505/2401.250
UWE-3 28 Jan 22:05:06 22:09:40 48° 262° (W) 22:14:15 435.000/436.395/437.385
TIGRISAT 28 Jan 22:07:56 22:10:44 17° 88° (E) 22:13:38 435.000
DELFI C3 28 Jan 22:11:25 22:14:58 28° 266° (W) 22:18:29 145.870
AAUSAT CUBESAT 2 28 Jan 22:15:06 22:17:07 13° 274° (W) 22:18:58 437.432
Oscar 11 28 Jan 22:23:03 22:26:21 20° 269° (W) 22:29:34 145.826/435.025
NANOSAT C BR1 28 Jan 22:25:00 22:27:26 15° 88° (E) 22:30:00 145.865
SPROUT 28 Jan 22:30:08 22:33:04 19° 61° (ENE) 22:36:08 437.525
VELOX 1 28 Jan 22:31:01 22:35:25 60° 259° (W) 22:39:51 145.980
QB50P2 28 Jan 22:38:26 22:41:38 20° 91° (E) 22:44:56 145.880/145.840
CUBEBUG 1 28 Jan 22:41:00 22:45:20 76° 74° (ENE) 22:49:45 437.445
QB50P1 28 Jan 22:47:44 22:51:17 25° 93° (E) 22:54:52 145.935-145.965
50 SAT 28 Jan 22:58:58 23:02:45 33° 264° (W) 23:06:31 437.505
UKube-1 28 Jan 22:59:03 23:01:35 15° 272° (W) 23:03:58 .
UNISAT 6 28 Jan 22:59:31 23:03:56 51° 99° (E) 23:08:13 437.425
POLYITAN 1 28 Jan 23:01:54 23:05:52 34° 96° (E) 23:09:49 437.675
BUGSAT 1 28 Jan 23:02:12 23:05:51 27° 94° (E) 23:09:32 437.445
CUBEBUG 2 28 Jan 23:02:59 23:05:40 14° 275° (W) 23:08:10 437.445
TISAT 1 28 Jan 23:07:53 23:11:49 38° 68° (ENE) 23:15:49 437.305
ZACube-1 28 Jan 23:12:44 23:15:26 15° 274° (W) 23:17:57 437.345
HUMSAT D 28 Jan 23:18:54 23:22:05 19° 271° (W) 23:25:09 437.325/437.525
SWISSCUBE 28 Jan 23:20:12 23:22:34 14° 55° (NE) 23:25:05 437.505
AIST 1 28 Jan 23:20:15 23:24:24 44° 267° (W) 23:28:32
POPSAT HIP 1 28 Jan 23:22:04 23:26:19 52° 100° (E) 23:30:32 437.405
DUCHIFAT 1 28 Jan 23:25:01 23:29:17 56° 100° (E) 23:33:30 145.980
FUNcube-1 28 Jan 23:26:08 23:27:47 11° 276° (W) 23:29:11 145.935
ISS 28 Jan 23:33:49 23:37:03 55° 154° (SSE) 23:40:18 145.825
BEESAT 28 Jan 23:35:19 23:38:20 17° 58° (ENE) 23:41:29 436.000
ANTELSAT 28 Jan 23:35:27 23:39:59 74° 286° (WNW) 23:44:21 437.575/2403.000
ITUPSAT 1 28 Jan 23:38:44 23:41:52 18° 58° (ENE) 23:45:09 437.325
ESTCUBE 1 28 Jan 23:40:56 23:44:51 29° 266° (W) 23:48:45 437.505/2401.250
AISAT 28 Jan 23:41:31 23:44:02 14° 273° (W) 23:46:23 437.250
TIGRISAT 28 Jan 23:43:33 23:48:02 63° 288° (WNW) 23:52:23 435.000
NANOSAT C BR1 28 Jan 23:59:31 00:03:50 67° 287° (WNW) 00:08:06 145.865
O/OREOS (USA 219) 29 Jan 00:04:24 00:05:59 12° 35° (NE) 00:07:43 437.305
SPROUT 29 Jan 00:04:31 00:08:48 60° 259° (W) 00:13:08 437.525
GONETS M04 29 Jan 00:05:53 00:11:34 20° 76° (ENE) 00:17:34
QB50P2 29 Jan 00:13:41 00:17:52 48° 290° (WNW) 00:22:00 145.880/145.840
CUBEBUG 1 29 Jan 00:20:03 00:22:22 14° 274° (W) 00:24:29 437.445
QB50P1 29 Jan 00:23:17 00:27:21 40° 292° (WNW) 00:31:21 145.935-145.965
UNISAT 6 29 Jan 00:36:55 00:40:26 22° 298° (WNW) 00:43:48 437.425
BUGSAT 1 29 Jan 00:37:29 00:41:27 36° 292° (WNW) 00:45:22 437.445
POLYITAN 1 29 Jan 00:37:57 00:41:46 30° 294° (WNW) 00:45:30 437.675
TISAT 1 29 Jan 00:44:14 00:47:47 25° 267° (W) 00:51:19 437.305
SWISSCUBE 29 Jan 00:55:00 00:59:45 82° 75° (ENE) 01:04:33 437.505
POPSAT HIP 1 29 Jan 00:58:40 01:01:56 21° 298° (WNW) 01:05:05 437.405
DUCHIFAT 1 29 Jan 01:01:39 01:04:49 20° 298° (WNW) 01:07:52 145.980
AUBIESAT-1 29 Jan 01:08:46 01:10:21 13° 55° (NE) 01:12:01 437.475
ISS 29 Jan 01:10:18 01:13:35 61° 353° (N) 01:16:53 145.825
BEESAT 29 Jan 01:10:55 01:15:41 78° 256° (WSW) 01:20:29 436.000
ANTELSAT 29 Jan 01:14:24 01:16:02 12° 305° (NW) 01:17:28 437.575/2403.000
ITUPSAT 1 29 Jan 01:14:32 01:19:18 74° 257° (WSW) 01:24:07 437.325
TIGRISAT 29 Jan 01:23:22 01:23:57 10° 307° (NW) 01:24:19 435.000
STARS 29 Jan 01:33:35 01:37:27 30° 65° (ENE) 01:41:22 437.465
Oscar 19 29 Jan 01:38:19 01:43:10 41° 97° (E) 01:48:02 437.125/150
NANOSAT C BR1 29 Jan 01:38:19 01:38:58 10° 305° (NW) 01:39:24 145.865
KKS-1 29 Jan 01:38:32 01:42:49 46° 69° (ENE) 01:47:10 437.445
O/OREOS (USA 219) 29 Jan 01:42:04 01:46:34 53° 58° (ENE) 01:51:05 437.305
ITAMSAT 1 29 Jan 01:53:57 01:57:57 22° 90° (E) 02:02:04 435.822/435.867
GONETS M04 29 Jan 01:58:26 02:07:12 82° 97° (E) 02:15:57
M-CUBED/EXP-1 PRIME 29 Jan 02:07:35 02:11:24 49° 66° (ENE) 02:14:57 437.505
AIST 2 29 Jan 02:22:47 02:23:21 10° 109° (ESE) 02:24:09 435.215
BEESAT 2 29 Jan 02:25:51 02:29:09 24° 116° (ESE) 02:32:34 435.950
SWISSCUBE 29 Jan 02:35:44 02:38:21 14° 274° (W) 02:40:47 437.505
DANDE 29 Jan 02:36:30 02:39:13 12° 73° (ENE) 02:42:33 436.750
BEESAT 3 29 Jan 02:39:48 02:43:32 35° 120° (ESE) 02:47:21 437.485
AUBIESAT-1 29 Jan 02:40:59 02:44:56 80° 250° (WSW) 02:48:35 437.475
ISS 29 Jan 02:46:59 02:50:18 74° 13° (NNE) 02:53:37 145.825
Gurwin Techsat 1B 29 Jan 02:48:13 02:53:19 45° 98° (E) 02:58:25 435.225
BEESAT 29 Jan 02:53:11 02:54:28 11° 277° (W) 02:55:29 436.000
ITUPSAT 1 29 Jan 02:57:42 02:58:12 10° 277° (W) 02:58:24 437.325
CUSAT 1 29 Jan 03:03:42 03:09:29 22° 81° (E) 03:15:32 437.405
STARS 29 Jan 03:09:44 03:13:52 36° 264° (W) 03:18:00 437.465
HORYU 2 29 Jan 03:15:29 03:19:11 26° 93° (E) 03:22:56 437.375
MOZHAYETS 4 29 Jan 03:15:54 03:19:29 23° 63° (ENE) 03:23:08
KKS-1 29 Jan 03:16:07 03:19:44 23° 268° (W) 03:23:18 437.445
Oscar 19 29 Jan 03:17:51 03:22:28 33° 296° (WNW) 03:27:00 437.125/150
O/OREOS (USA 219) 29 Jan 03:22:08 03:25:42 22° 257° (WSW) 03:29:10 437.305
RS-15 29 Jan 03:24:10 03:29:16 15° 97° (E) 03:35:10 29.354- 29.394
AO-7 29 Jan 03:24:17 03:30:25 23° 87° (E) 03:36:49 29.400- 29.500
ITAMSAT 1 29 Jan 03:32:45 03:37:55 61° 290° (WNW) 03:43:04 435.822/435.867
M-CUBED/EXP-1 PRIME 29 Jan 03:43:59 03:46:39 17° 262° (W) 03:49:06 437.505
AIST 2 29 Jan 03:57:01 04:01:16 73° 127° (SE) 04:05:36 435.215
GONETS M04 29 Jan 03:57:51 04:05:14 28° 302° (WNW) 04:12:24
BEESAT 2 29 Jan 04:03:04 04:07:08 51° 315° (NW) 04:11:16 435.950
YUBILEINY 29 Jan 04:06:25 04:08:47 11° 37° (NE) 04:11:36 435.215
PCSat 29 Jan 04:09:17 04:13:36 25° 111° (ESE) 04:18:02 145.827
DANDE 29 Jan 04:13:06 04:21:02 50° 92° (E) 04:29:14 436.750
BEESAT 3 29 Jan 04:17:47 04:21:40 37° 320° (NW) 04:25:35 437.485
ISS 29 Jan 04:23:38 04:26:40 33° 213° (SSW) 04:29:41 145.825
Gurwin Techsat 1B 29 Jan 04:28:29 04:33:11 32° 297° (WNW) 04:37:49 435.225
JAS-2 29 Jan 04:30:59 04:35:50 30° 94° (E) 04:41:13 435.910
CUSAT 1 29 Jan 04:43:14 04:51:34 80° 99° (E) 04:59:53 437.405
HORYU 2 29 Jan 04:51:50 04:56:02 40° 292° (WNW) 05:00:11 437.375
MOZHAYETS 4 29 Jan 04:52:00 04:56:29 50° 261° (W) 05:00:57
CUBESAT XI-V 29 Jan 05:07:25 05:11:08 25° 64° (ENE) 05:14:59 437.345
STRAND 1 29 Jan 05:08:16 05:12:13 24° 60° (ENE) 05:16:18 437.568
ITAMSAT 1 29 Jan 05:14:26 05:16:30 12° 309° (NW) 05:18:22 435.822/435.867
PRISM 29 Jan 05:15:50 05:19:39 39° 68° (ENE) 05:23:31 437.425
AO-7 29 Jan 05:16:05 05:24:30 89° 110° (ESE) 05:32:50 29.400- 29.500
RS-15 29 Jan 05:28:51 05:39:26 62° 119° (ESE) 05:50:14 29.354- 29.394
Cubesat XI-IV 29 Jan 05:35:04 05:38:16 16° 86° (E) 05:41:41 437.490
AIST 2 29 Jan 05:36:47 05:40:21 24° 328° (NNW) 05:43:54 435.215
BEESAT 2 29 Jan 05:43:44 05:46:18 15° 338° (NNW) 05:48:50 435.950
PCSat 29 Jan 05:51:16 05:56:39 64° 309° (NW) 06:02:06 145.827
CUTE-I 29 Jan 05:54:28 05:58:39 23° 90° (E) 06:02:57 437.470
DANDE 29 Jan 05:56:23 06:04:37 51° 292° (WNW) 06:12:53 436.750
BEESAT 3 29 Jan 05:58:55 06:00:58 13° 342° (NNW) 06:02:57 437.485
YUBILEINY 29 Jan 06:00:43 06:08:54 42° 66° (ENE) 06:17:11 435.215
JAS-2 29 Jan 06:15:54 06:21:13 50° 291° (WNW) 06:27:04 435.910
CUSAT 1 29 Jan 06:28:04 06:35:29 32° 300° (WNW) 06:42:34 437.405
CUBESAT XI-V 29 Jan 06:43:58 06:48:24 45° 262° (W) 06:52:52 437.345
STRAND 1 29 Jan 06:46:03 06:51:05 60° 259° (WSW) 06:56:11 437.568
PRISM 29 Jan 06:52:00 06:55:21 23° 267° (W) 06:58:40 437.425
AO-7 29 Jan 07:09:37 07:16:30 29° 312° (NW) 07:23:10 29.400- 29.500
Cubesat XI-IV 29 Jan 07:13:45 07:19:10 84° 288° (WNW) 07:24:34 437.490
AIST 2 29 Jan 07:19:00 07:20:27 11° 351° (N) 07:21:53 435.215
BEESAT 2 29 Jan 07:25:57 07:26:13 10° 1° (N) 07:26:32 435.950
CUTE-I 29 Jan 07:33:53 07:39:12 61° 290° (WNW) 07:44:29 437.470
PCSat 29 Jan 07:37:10 07:41:10 20° 333° (NNW) 07:45:07 145.827
BEESAT 3 29 Jan 07:40:13 07:40:52 10° 6° (N) 07:41:31 437.485
RS-15 29 Jan 07:41:29 07:52:10 55° 326° (NNW) 08:03:07 29.354- 29.394
DANDE 29 Jan 07:45:09 07:50:21 16° 315° (NW) 07:55:06 436.750
YUBILEINY 29 Jan 07:57:37 08:06:06 55° 269° (W) 08:14:32 435.215
GOMX 1 29 Jan 07:59:24 08:02:00 14° 82° (E) 08:04:48 467.674
BRITE-PL 29 Jan 08:02:25 08:06:35 21° 86° (E) 08:10:50 437.365/2234.400
JAS-2 29 Jan 08:04:50 08:05:22 10° 311° (NW) 08:05:37 435.910
CANX-2 29 Jan 08:05:25 08:06:52 12° 85° (E) 08:08:32 2200.000
DOVE 4 29 Jan 08:12:30 08:14:32 12° 81° (E) 08:16:48 437.250
CUTE 1.7 + AOD 2 29 Jan 08:28:26 08:31:22 18° 89° (E) 08:34:24 437.475
UNISAT 6 29 Jan 08:28:56 08:30:59 13° 56° (NE) 08:33:14 437.425
POPSAT HIP 1 29 Jan 08:47:21 08:48:11 11° 55° (NE) 08:49:12 437.405
DUCHIFAT 1 29 Jan 08:49:46 08:50:51 11° 56° (NE) 08:52:08 145.980
Cubesat XI-IV 29 Jan 08:55:10 08:58:35 17° 305° (NW) 09:01:50 437.490
SEEDS 29 Jan 08:58:38 09:02:23 31° 95° (E) 09:06:08 437.485
AIST 2 29 Jan 08:58:52 09:00:52 13° 15° (NNE) 09:02:55 435.215
ANTELSAT 29 Jan 09:02:54 09:06:39 24° 63° (ENE) 09:10:27 437.575/2403.000
BEESAT 2 29 Jan 09:03:20 09:06:06 17° 25° (NNE) 09:08:55 435.950
AO-7 29 Jan 09:04:44 09:06:35 11° 337° (NNW) 09:08:11 29.400- 29.500
HO-68 29 Jan 09:09:16 09:16:13 52° 100° (E) 09:23:11 435.675
TIGRISAT 29 Jan 09:10:27 09:14:23 27° 64° (ENE) 09:18:21 435.000
CUBEBUG 2 29 Jan 09:12:23 09:14:40 14° 85° (E) 09:17:06 437.445
CUTE-I 29 Jan 09:16:04 09:18:21 12° 309° (NW) 09:20:25 437.470
BEESAT 3 29 Jan 09:17:24 09:20:33 20° 29° (NNE) 09:23:43 437.485
ZACube-1 29 Jan 09:20:53 09:22:12 11° 83° (E) 09:23:44 437.345
NANOSAT C BR1 29 Jan 09:21:55 09:25:06 21° 62° (ENE) 09:28:23 145.865
PCSat 29 Jan 09:24:34 09:26:46 12° 359° (N) 09:28:58 145.827
COMPASS 1 29 Jan 09:25:05 09:29:09 48° 99° (E) 09:33:11 437.405
DX 1 29 Jan 09:26:06 09:28:29 15° 88° (E) 09:31:01 434.975-435.025
FUNcube-1 29 Jan 09:31:59 09:34:23 15° 86° (E) 09:36:56 145.935
